{"data":{"norad_id":60454,"epoch":"2026-05-25T04:53:57.830784Z","epoch_age_seconds":64380,"freshness":"FRESH","line1":"1 60454U 24147A   26145.20414156  .00025332  00000+0  47852-3 0  9991","line2":"2 60454  37.3800 203.1134 0001455 108.5423 251.5499 15.47620084 99510","mean_motion":15.47620084,"eccentricity":0.0001455,"inclination_deg":37.38,"raan_deg":203.1134,"arg_perigee_deg":108.5423,"mean_anomaly_deg":251.5499,"bstar":0.00047852,"rev_number":9951,"period_min":93.046091536765,"perigee_km":422.70067132689,"apogee_km":424.68000308202,"semimajor_km":6801.8273372045,"source":"CELESTRAK","updated_at":"2026-05-25T13:38:02.084325Z"}}